#timestamp,LO_Frequency,Hit,StdDev 
1599638415.2,286046999.5,N
1599638435.1,286046999.0,N
1599638436.0,286046999.0,N
1599638455.8,286046999.3,N
1599638475.6,286046998.7,N
1599638495.5,286046999.0,N
1599638515.3,286046998.3,N
1599638535.1,286046998.7,N
1599638555.9,286046999.4,N
1599638575.7,286046998.5,N
1599638595.6,286046999.4,N
1599638615.4,286046998.3,N
1599638635.2,286046999.6,N
1599638655.1,286046998.3,N
1599638656.0,286046998.3,N
1599638675.8,286046998.5,N
1599638695.6,286046998.9,N
1599638715.5,286046998.3,N
1599638735.3,286046999.4,N
1599638755.2,286046998.9,N
1599638775.9,286046999.2,N
1599638795.7,286046998.6,N
1599638815.6,286046998.5,N
1599638835.4,286047000.8,N
1599638855.2,286047000.7,N
1599638875.1,286047000.5,N
1599638876.0,286047000.5,N
1599638895.8,286047000.5,N
1599638915.7,286047000.8,N
1599638935.5,286046998.1,N
1599638955.3,286046998.4,N
1599638975.2,286046999.2,N
1599638995.0,286046998.8,N
1599638995.9,286046998.8,N
1599639015.8,286046999.0,N
1599639035.6,286046998.7,N
1599639055.4,286047000.3,N
1599639075.3,286047000.4,N
1599639095.1,286047000.9,N
1599639115.8,286046998.4,N
1599639135.7,286046996.5,Y
1599639155.5,286047000.4,P
1599639175.4,286046999.8,N
1599639195.2,286047000.1,N
1599639215.0,286046999.9,N
1599639215.9,286046999.9,N
1599639235.8,286047000.0,N
1599639255.6,286047002.7,Y
1599639275.5,286047002.7,P
1599639295.3,286047000.6,N
1599639315.1,286047000.5,N
1599639335.9,286047000.8,N
1599639355.7,286046998.2,N
1599639375.5,286047000.9,N
1599639395.4,286047000.0,N
1599639415.2,286047001.8,N
1599639435.1,286047002.5,N
1599639436.0,286047002.5,N
1599639455.8,286047003.7,N
1599639475.6,286047003.4,N
1599639495.5,286047004.3,N
1599639515.3,286047002.2,N
1599639535.2,286047002.8,N
1599639555.9,286046999.8,N
1599639575.7,286047002.8,N
1599639595.6,286047002.8,N
1599639615.4,286047000.9,N
1599639635.2,286047000.9,N
1599639655.1,286047002.4,N
1599639656.0,286047002.4,N
1599639675.8,286047000.6,N
1599639695.7,286047000.3,N
1599639715.5,286047000.0,N
1599639735.3,286047000.8,N
1599639755.2,286047000.9,N
1599639775.0,286047000.0,N
1599639775.9,286047000.0,N
1599639795.8,286047002.6,N
1599639815.6,286047002.3,N
1599639835.4,286047002.7,N
1599639855.3,286047000.7,N
1599639875.1,286047000.5,N
1599639876.0,286047000.5,N
1599639895.8,286047000.1,N
1599639915.7,286047002.4,N
1599639935.5,286047003.8,Y
1599639955.4,286047000.3,P
1599639975.2,286047000.7,N
1599639995.0,286047000.1,N
1599639995.9,286047000.1,N
1599640015.8,286047000.0,N
1599640035.6,286047001.2,N
1599640055.5,286047000.7,N
1599640075.3,286047002.5,Y
1599640095.1,286046999.8,P
1599640115.9,286047002.8,P
1599640135.7,286047002.4,N
1599640155.6,286046999.9,N
1599640175.4,286047000.2,N
1599640195.2,286047000.0,N
1599640215.1,286047000.6,N
1599640216.0,286047000.6,N
1599640235.8,286047000.5,N
1599640255.6,286047000.5,N
1599640275.5,286046998.6,N
1599640295.3,286046998.6,N
1599640315.2,286046998.3,N
1599640335.9,286046999.0,N
1599640355.7,286046998.8,N
1599640375.6,286046998.4,N
1599640395.4,286046998.4,N
1599640415.2,286046999.5,N
1599640435.1,286046998.7,N
1599640436.0,286046998.7,N
1599640455.8,286046999.4,N
1599640475.7,286046996.5,N
1599640495.5,286046996.9,N
1599640515.3,286046996.5,N
1599640535.2,286046997.7,N
1599640555.0,286046999.2,N
1599640555.9,286046999.2,N
1599640575.8,286046997.4,N
1599640595.6,286046997.2,N
1599640615.4,286046998.5,N
1599640635.3,286046998.4,N
1599640655.1,286046999.0,N
1599640675.9,286047001.2,N
1599640695.7,286046998.7,N
1599640715.5,286047001.1,N
1599640735.4,286047000.3,N
1599640755.2,286047000.0,N
1599640775.0,286046999.9,N
1599640775.9,286046999.9,N
1599640795.8,286047000.3,N
1599640815.6,286047000.8,N
1599640835.5,286047000.6,N
1599640855.3,286046998.3,N
1599640875.1,286047001.2,N
1599640895.9,286046998.3,N
1599640915.7,286046998.5,N
1599640935.6,286046998.4,N
1599640955.4,286046998.8,N
1599640975.2,286046999.4,N
1599640995.1,286046999.2,N
1599640996.0,286046999.2,N
1599641015.8,286046997.7,N
1599641035.6,286046997.2,N
1599641055.5,286046997.9,N
1599641075.3,286046997.8,N
1599641095.2,286046997.7,N
1599641115.9,286046997.5,N
1599641135.7,286046995.2,Y
1599641155.6,286046998.9,P
1599641175.4,286047000.8,P
1599641195.2,286046998.7,N
1599641215.1,286046998.5,N
1599641216.0,286046998.5,N
1599641235.8,286047001.0,N
1599641255.7,286047000.9,N
1599641275.5,286047000.2,N
1599641295.3,286047000.0,N
1599641315.2,286047000.2,N
1599641335.0,286047000.0,N
1599641335.9,286047000.0,N
1599641355.8,286047000.4,N
1599641375.6,286047002.4,N
1599641395.4,286047004.3,Y
1599641415.3,286047002.1,P
1599641435.1,286047000.3,N
1599641455.9,286047000.0,N
1599641475.7,286046999.9,N
1599641495.5,286047000.0,N
1599641515.4,286047000.0,N
1599641535.2,286047000.5,N
1599641555.0,286046998.8,N
1599641555.9,286046998.8,N
1599641575.8,286046998.3,N
1599641595.6,286047000.4,N
1599641615.4,286046998.7,N
1599641635.3,286046999.0,N
1599641655.1,286046998.8,N
1599641675.9,286047000.4,N
1599641695.7,286047000.5,N
1599641715.5,286047000.9,N
1599641735.4,286047000.0,N
1599641755.2,286047001.1,N
1599641775.0,286047000.7,N
1599641776.0,286047000.7,N
1599641795.8,286047000.4,N
1599641815.6,286047001.2,N
1599641835.5,286047000.7,N
1599641855.3,286046998.6,N
1599641875.2,286046999.4,N
1599641895.9,286046999.1,N
1599641915.7,286046999.4,N
1599641935.6,286046996.9,Y
1599641955.4,286046996.7,P
1599641975.2,286046999.5,N
1599641995.1,286046999.2,N
1599641996.0,286046999.2,N
